Year,Month,Day,Hour,Minute,Value (Times are PST for temperature in C)
2011,07,23,00,00,10.30
2011,07,23,00,01,10.30
2011,07,23,00,02,10.30
2011,07,23,00,03,10.30
2011,07,23,00,04,10.30
2011,07,23,00,05,10.20
2011,07,23,00,06,10.20
2011,07,23,00,07,10.20
2011,07,23,00,08,10.20
2011,07,23,00,09,10.20
2011,07,23,00,10,10.10
2011,07,23,00,11,10.10
2011,07,23,00,12,10.10
2011,07,23,00,13,10.10
2011,07,23,00,14,10.20
2011,07,23,00,15,10.20
2011,07,23,00,16,10.20
2011,07,23,00,17,10.30
2011,07,23,00,18,10.30
2011,07,23,00,19,10.30
2011,07,23,00,20,10.40
2011,07,23,00,21,10.40
2011,07,23,00,22,10.40
2011,07,23,00,23,10.40
2011,07,23,00,24,10.40
2011,07,23,00,25,10.40
2011,07,23,00,26,10.40
2011,07,23,00,27,10.50
2011,07,23,00,28,10.50
2011,07,23,00,29,10.50
2011,07,23,00,30,10.50
2011,07,23,00,31,10.40
2011,07,23,00,32,10.40
2011,07,23,00,33,10.40
2011,07,23,00,34,10.40
2011,07,23,00,35,10.40
2011,07,23,00,36,10.40
2011,07,23,00,37,10.30
2011,07,23,00,38,10.30
2011,07,23,00,39,10.30
2011,07,23,00,40,10.20
2011,07,23,00,41,10.20
2011,07,23,00,42,10.20
2011,07,23,00,43,10.10
2011,07,23,00,44,10.10
2011,07,23,00,45,10.10
2011,07,23,00,46,10.00
2011,07,23,00,47,10.00
2011,07,23,00,48,10.00
2011,07,23,00,49,9.90
2011,07,23,00,50,9.90
2011,07,23,00,51,9.90
2011,07,23,00,52,9.90
2011,07,23,00,53,9.80
2011,07,23,00,54,9.80
2011,07,23,00,55,9.80
2011,07,23,00,56,9.80
2011,07,23,00,57,9.70
2011,07,23,00,58,9.70
2011,07,23,00,59,9.70
2011,07,23,01,00,9.70
2011,07,23,01,01,9.60
2011,07,23,01,02,9.60
2011,07,23,01,03,9.60
2011,07,23,01,04,9.60
2011,07,23,01,05,9.50
2011,07,23,01,06,9.50
2011,07,23,01,07,9.50
2011,07,23,01,08,9.40
2011,07,23,01,09,9.40
2011,07,23,01,10,9.40
2011,07,23,01,11,9.40
2011,07,23,01,12,9.40
2011,07,23,01,13,9.30
2011,07,23,01,14,9.30
2011,07,23,01,15,9.30
2011,07,23,01,16,9.30
2011,07,23,01,17,9.30
2011,07,23,01,18,9.30
2011,07,23,01,19,9.20
2011,07,23,01,20,9.20
2011,07,23,01,21,9.20
2011,07,23,01,22,9.20
2011,07,23,01,23,9.20
2011,07,23,01,24,9.20
2011,07,23,01,25,9.20
2011,07,23,01,26,9.20
2011,07,23,01,27,9.20
2011,07,23,01,28,9.20
2011,07,23,01,29,9.20
2011,07,23,01,30,9.20
2011,07,23,01,31,9.20
2011,07,23,01,32,9.30
2011,07,23,01,33,9.30
2011,07,23,01,34,9.40
2011,07,23,01,35,9.50
2011,07,23,01,36,9.50
2011,07,23,01,37,9.60
2011,07,23,01,38,9.70
2011,07,23,01,39,9.70
2011,07,23,01,40,9.70
2011,07,23,01,41,9.80
2011,07,23,01,42,9.80
2011,07,23,01,43,9.80
2011,07,23,01,44,9.80
2011,07,23,01,45,9.80
2011,07,23,01,46,9.80
2011,07,23,01,47,9.80
2011,07,23,01,48,9.80
2011,07,23,01,49,9.80
2011,07,23,01,50,9.70
2011,07,23,01,51,9.70
2011,07,23,01,52,9.70
2011,07,23,01,53,9.70
2011,07,23,01,54,9.70
2011,07,23,01,55,9.60
2011,07,23,01,56,9.60
2011,07,23,01,57,9.60
2011,07,23,01,58,9.60
2011,07,23,01,59,9.60
2011,07,23,02,00,9.50
2011,07,23,02,01,9.50
2011,07,23,02,02,9.50
2011,07,23,02,03,9.40
2011,07,23,02,04,9.40
2011,07,23,02,05,9.40
2011,07,23,02,06,9.30
2011,07,23,02,07,9.30
2011,07,23,02,08,9.30
2011,07,23,02,09,9.30
2011,07,23,02,10,9.30
2011,07,23,02,11,9.20
2011,07,23,02,12,9.20
2011,07,23,02,13,9.20
2011,07,23,02,14,9.10
2011,07,23,02,15,9.10
2011,07,23,02,16,9.10
2011,07,23,02,17,9.00
2011,07,23,02,18,9.00
2011,07,23,02,19,8.90
2011,07,23,02,20,8.90
2011,07,23,02,21,8.90
2011,07,23,02,22,8.90
2011,07,23,02,23,8.90
2011,07,23,02,24,8.90
2011,07,23,02,25,8.90
2011,07,23,02,26,8.80
2011,07,23,02,27,8.80
2011,07,23,02,28,8.80
2011,07,23,02,29,8.80
2011,07,23,02,30,8.80
2011,07,23,02,31,8.70
2011,07,23,02,32,8.70
2011,07,23,02,33,8.70
2011,07,23,02,34,8.70
2011,07,23,02,35,8.70
2011,07,23,02,36,8.70
2011,07,23,02,37,8.60
2011,07,23,02,38,8.60
2011,07,23,02,39,8.60
2011,07,23,02,40,8.60
2011,07,23,02,41,8.60
2011,07,23,02,42,8.60
2011,07,23,02,43,8.60
2011,07,23,02,44,8.50
2011,07,23,02,45,8.50
2011,07,23,02,46,8.50
2011,07,23,02,47,8.50
2011,07,23,02,48,8.50
2011,07,23,02,49,8.40
2011,07,23,02,50,8.40
2011,07,23,02,51,8.40
2011,07,23,02,52,8.40
2011,07,23,02,53,8.40
2011,07,23,02,54,8.40
2011,07,23,02,55,8.40
2011,07,23,02,56,8.40
2011,07,23,02,57,8.30
2011,07,23,02,58,8.30
2011,07,23,02,59,8.30
2011,07,23,03,00,8.30
2011,07,23,03,01,8.30
2011,07,23,03,02,8.30
2011,07,23,03,03,8.30
2011,07,23,03,04,8.30
2011,07,23,03,05,8.30
2011,07,23,03,06,8.30
2011,07,23,03,07,8.20
2011,07,23,03,08,8.20
2011,07,23,03,09,8.20
2011,07,23,03,10,8.20
2011,07,23,03,11,8.20
2011,07,23,03,12,8.20
2011,07,23,03,13,8.10
2011,07,23,03,14,8.10
2011,07,23,03,15,8.10
2011,07,23,03,16,8.10
2011,07,23,03,17,8.10
2011,07,23,03,18,8.10
2011,07,23,03,19,8.10
2011,07,23,03,20,8.10
2011,07,23,03,21,8.10
2011,07,23,03,22,8.10
2011,07,23,03,23,8.10
2011,07,23,03,24,8.10
2011,07,23,03,25,8.00
2011,07,23,03,26,8.00
2011,07,23,03,27,8.10
2011,07,23,03,28,8.10
2011,07,23,03,29,8.10
2011,07,23,03,30,8.00
2011,07,23,03,31,8.00
2011,07,23,03,32,8.00
2011,07,23,03,33,8.00
2011,07,23,03,34,8.00
2011,07,23,03,35,8.00
2011,07,23,03,36,8.00
2011,07,23,03,37,8.00
2011,07,23,03,38,8.00
2011,07,23,03,39,8.00
2011,07,23,03,40,8.00
2011,07,23,03,41,8.00
2011,07,23,03,42,7.90
2011,07,23,03,43,7.90
2011,07,23,03,44,7.90
2011,07,23,03,45,7.90
2011,07,23,03,46,7.90
2011,07,23,03,47,7.90
2011,07,23,03,48,7.90
2011,07,23,03,49,7.90
2011,07,23,03,50,7.90
2011,07,23,03,51,7.90
2011,07,23,03,52,7.90
2011,07,23,03,53,7.90
2011,07,23,03,54,7.90
2011,07,23,03,55,7.90
2011,07,23,03,56,7.90
2011,07,23,03,57,7.90
2011,07,23,03,58,7.90
2011,07,23,03,59,7.90
2011,07,23,04,00,7.90
2011,07,23,04,01,7.90
2011,07,23,04,02,7.90
2011,07,23,04,03,7.90
2011,07,23,04,04,7.90
2011,07,23,04,05,7.90
2011,07,23,04,06,7.90
2011,07,23,04,07,7.80
2011,07,23,04,08,7.80
2011,07,23,04,09,7.80
2011,07,23,04,10,7.80
2011,07,23,04,11,7.80
2011,07,23,04,12,7.80
2011,07,23,04,13,7.80
2011,07,23,04,14,7.80
2011,07,23,04,15,7.80
2011,07,23,04,16,7.80
2011,07,23,04,17,7.80
2011,07,23,04,18,7.80
2011,07,23,04,19,7.80
2011,07,23,04,20,7.80
2011,07,23,04,21,7.80
2011,07,23,04,22,7.70
2011,07,23,04,23,7.70
2011,07,23,04,24,7.70
2011,07,23,04,25,7.70
2011,07,23,04,26,7.70
2011,07,23,04,27,7.70
2011,07,23,04,28,7.70
2011,07,23,04,29,7.70
2011,07,23,04,30,7.70
2011,07,23,04,31,7.70
2011,07,23,04,32,7.70
2011,07,23,04,33,7.70
2011,07,23,04,34,7.70
2011,07,23,04,35,7.70
2011,07,23,04,36,7.70
2011,07,23,04,37,7.70
2011,07,23,04,38,7.70
2011,07,23,04,39,7.70
2011,07,23,04,40,7.80
2011,07,23,04,41,7.80
2011,07,23,04,42,7.70
2011,07,23,04,43,7.80
2011,07,23,04,44,7.70
2011,07,23,04,45,7.80
2011,07,23,04,46,7.70
2011,07,23,04,47,7.70
2011,07,23,04,48,7.70
2011,07,23,04,49,7.70
2011,07,23,04,50,7.70
2011,07,23,04,51,7.70
2011,07,23,04,52,7.70
2011,07,23,04,53,7.70
2011,07,23,04,54,7.70
2011,07,23,04,55,7.70
2011,07,23,04,56,7.70
2011,07,23,04,57,7.70
2011,07,23,04,58,7.60
2011,07,23,04,59,7.60
2011,07,23,05,00,7.60
2011,07,23,05,01,7.60
2011,07,23,05,02,7.60
2011,07,23,05,03,7.60
2011,07,23,05,04,7.60
2011,07,23,05,05,7.60
2011,07,23,05,06,7.50
2011,07,23,05,07,7.50
2011,07,23,05,08,7.50
2011,07,23,05,09,7.50
2011,07,23,05,10,7.50
2011,07,23,05,11,7.40
2011,07,23,05,12,7.40
2011,07,23,05,13,7.40
2011,07,23,05,14,7.40
2011,07,23,05,15,7.40
2011,07,23,05,16,7.40
2011,07,23,05,17,7.40
2011,07,23,05,18,7.40
2011,07,23,05,19,7.40
2011,07,23,05,20,7.40
2011,07,23,05,21,7.40
2011,07,23,05,22,7.40
2011,07,23,05,23,7.40
2011,07,23,05,24,7.40
2011,07,23,05,25,7.30
2011,07,23,05,26,7.30
2011,07,23,05,27,7.30
2011,07,23,05,28,7.30
2011,07,23,05,29,7.30
2011,07,23,05,30,7.30
2011,07,23,05,31,7.30
2011,07,23,05,32,7.30
2011,07,23,05,33,7.30
2011,07,23,05,34,7.30
2011,07,23,05,35,7.30
2011,07,23,05,36,7.30
2011,07,23,05,37,7.30
2011,07,23,05,38,7.30
2011,07,23,05,39,7.30
2011,07,23,05,40,7.30
2011,07,23,05,41,7.30
2011,07,23,05,42,7.30
2011,07,23,05,43,7.30
2011,07,23,05,44,7.30
2011,07,23,05,45,7.20
2011,07,23,05,46,7.20
2011,07,23,05,47,7.20
2011,07,23,05,48,7.20
2011,07,23,05,49,7.20
2011,07,23,05,50,7.20
2011,07,23,05,51,7.20
2011,07,23,05,52,7.20
2011,07,23,05,53,7.20
2011,07,23,05,54,7.20
2011,07,23,05,55,7.20
2011,07,23,05,56,7.20
2011,07,23,05,57,7.20
2011,07,23,05,58,7.20
2011,07,23,05,59,7.20
2011,07,23,06,00,7.20
2011,07,23,06,01,7.20
2011,07,23,06,02,7.30
2011,07,23,06,03,7.30
2011,07,23,06,04,7.30
2011,07,23,06,05,7.30
2011,07,23,06,06,7.30
2011,07,23,06,07,7.30
2011,07,23,06,08,7.30
2011,07,23,06,09,7.40
2011,07,23,06,10,7.40
2011,07,23,06,11,7.40
2011,07,23,06,12,7.40
2011,07,23,06,13,7.40
2011,07,23,06,14,7.50
2011,07,23,06,15,7.50
2011,07,23,06,16,7.60
2011,07,23,06,17,7.60
2011,07,23,06,18,7.60
2011,07,23,06,19,7.60
2011,07,23,06,20,7.60
2011,07,23,06,21,7.60
2011,07,23,06,22,7.60
2011,07,23,06,23,7.60
2011,07,23,06,24,7.60
2011,07,23,06,25,7.70
2011,07,23,06,26,7.70
2011,07,23,06,27,7.70
2011,07,23,06,28,7.70
2011,07,23,06,29,7.80
2011,07,23,06,30,7.80
2011,07,23,06,31,7.80
2011,07,23,06,32,7.80
2011,07,23,06,33,7.80
2011,07,23,06,34,7.90
2011,07,23,06,35,7.90
2011,07,23,06,36,7.90
2011,07,23,06,37,8.00
2011,07,23,06,38,8.00
2011,07,23,06,39,8.00
2011,07,23,06,40,8.00
2011,07,23,06,41,8.10
2011,07,23,06,42,8.10
2011,07,23,06,43,8.10
2011,07,23,06,44,8.10
2011,07,23,06,45,8.10
2011,07,23,06,46,8.10
2011,07,23,06,47,8.10
2011,07,23,06,48,8.20
2011,07,23,06,49,8.20
2011,07,23,06,50,8.20
2011,07,23,06,51,8.20
2011,07,23,06,52,8.20
2011,07,23,06,53,8.20
2011,07,23,06,54,8.20
2011,07,23,06,55,8.30
2011,07,23,06,56,8.30
2011,07,23,06,57,8.30
2011,07,23,06,58,8.30
2011,07,23,06,59,8.30
2011,07,23,07,00,8.30
2011,07,23,07,01,8.40
2011,07,23,07,02,8.40
2011,07,23,07,03,8.40
2011,07,23,07,04,8.40
2011,07,23,07,05,8.50
2011,07,23,07,06,8.50
2011,07,23,07,07,8.50
2011,07,23,07,08,8.60
2011,07,23,07,09,8.60
2011,07,23,07,10,8.60
2011,07,23,07,11,8.70
2011,07,23,07,12,8.70
2011,07,23,07,13,8.70
2011,07,23,07,14,8.70
2011,07,23,07,15,8.80
2011,07,23,07,16,8.80
2011,07,23,07,17,8.90
2011,07,23,07,18,8.90
2011,07,23,07,19,9.00
2011,07,23,07,20,9.00
2011,07,23,07,21,9.10
2011,07,23,07,22,9.10
2011,07,23,07,23,9.20
2011,07,23,07,24,9.20
2011,07,23,07,25,9.20
2011,07,23,07,26,9.30
2011,07,23,07,27,9.30
2011,07,23,07,28,9.30
2011,07,23,07,29,9.40
2011,07,23,07,30,9.40
2011,07,23,07,31,9.40
2011,07,23,07,32,9.50
2011,07,23,07,33,9.50
2011,07,23,07,34,9.60
2011,07,23,07,35,9.60
2011,07,23,07,36,9.60
2011,07,23,07,37,9.70
2011,07,23,07,38,9.70
2011,07,23,07,39,9.70
2011,07,23,07,40,9.80
2011,07,23,07,41,9.80
2011,07,23,07,42,9.80
2011,07,23,07,43,9.90
2011,07,23,07,44,9.90
2011,07,23,07,45,10.00
2011,07,23,07,46,10.00
2011,07,23,07,47,10.00
2011,07,23,07,48,10.00
2011,07,23,07,49,10.10
2011,07,23,07,50,10.10
2011,07,23,07,51,10.10
2011,07,23,07,52,10.10
2011,07,23,07,53,10.10
2011,07,23,07,54,10.10
2011,07,23,07,55,10.10
2011,07,23,07,56,10.10
2011,07,23,07,57,10.10
2011,07,23,07,58,10.10
2011,07,23,07,59,10.20
2011,07,23,08,00,10.20
2011,07,23,08,01,10.20
2011,07,23,08,02,10.20
2011,07,23,08,03,10.20
2011,07,23,08,04,10.30
2011,07,23,08,05,10.30
2011,07,23,08,06,10.30
2011,07,23,08,07,10.30
2011,07,23,08,08,10.40
2011,07,23,08,09,10.40
2011,07,23,08,10,10.40
2011,07,23,08,11,10.50
2011,07,23,08,12,10.50
2011,07,23,08,13,10.60
2011,07,23,08,14,10.70
2011,07,23,08,15,10.70
2011,07,23,08,16,10.70
2011,07,23,08,17,10.70
2011,07,23,08,18,10.80
2011,07,23,08,19,10.80
2011,07,23,08,20,10.90
2011,07,23,08,21,11.00
2011,07,23,08,22,11.00
2011,07,23,08,23,11.10
2011,07,23,08,24,11.20
2011,07,23,08,25,11.30
2011,07,23,08,26,11.30
2011,07,23,08,27,11.30
2011,07,23,08,28,11.40
2011,07,23,08,29,11.40
2011,07,23,08,30,11.40
2011,07,23,08,31,11.40
2011,07,23,08,32,11.50
2011,07,23,08,33,11.50
2011,07,23,08,34,11.50
2011,07,23,08,35,11.60
2011,07,23,08,36,11.60
2011,07,23,08,37,11.70
2011,07,23,08,38,11.80
2011,07,23,08,39,11.80
2011,07,23,08,40,11.80
2011,07,23,08,41,11.90
2011,07,23,08,42,11.90
2011,07,23,08,43,12.00
2011,07,23,08,44,12.00
2011,07,23,08,45,12.10
2011,07,23,08,46,12.10
2011,07,23,08,47,12.20
2011,07,23,08,48,12.20
2011,07,23,08,49,12.30
2011,07,23,08,50,12.30
2011,07,23,08,51,12.30
2011,07,23,08,52,12.40
2011,07,23,08,53,12.50
2011,07,23,08,54,12.50
2011,07,23,08,55,12.60
2011,07,23,08,56,12.60
2011,07,23,08,57,12.70
2011,07,23,08,58,12.70
2011,07,23,08,59,12.70
2011,07,23,09,00,12.70
2011,07,23,09,01,12.70
2011,07,23,09,02,12.70
2011,07,23,09,03,12.70
2011,07,23,09,04,12.70
2011,07,23,09,05,12.80
2011,07,23,09,06,12.80
2011,07,23,09,07,12.90
2011,07,23,09,08,13.00
2011,07,23,09,09,13.10
2011,07,23,09,10,13.20
2011,07,23,09,11,13.20
2011,07,23,09,12,13.40
2011,07,23,09,13,13.50
2011,07,23,09,14,13.60
2011,07,23,09,15,13.70
2011,07,23,09,16,13.80
2011,07,23,09,17,13.80
2011,07,23,09,18,13.90
2011,07,23,09,19,14.00
2011,07,23,09,20,14.10
2011,07,23,09,21,14.20
2011,07,23,09,22,14.20
2011,07,23,09,23,14.30
2011,07,23,09,24,14.40
2011,07,23,09,25,14.40
2011,07,23,09,26,14.50
2011,07,23,09,27,14.60
2011,07,23,09,28,14.80
2011,07,23,09,29,14.90
2011,07,23,09,30,15.00
2011,07,23,09,31,15.00
2011,07,23,09,32,15.00
2011,07,23,09,33,15.00
2011,07,23,09,34,15.00
2011,07,23,09,35,15.00
2011,07,23,09,36,15.00
2011,07,23,09,37,15.10
2011,07,23,09,38,15.20
2011,07,23,09,39,15.30
2011,07,23,09,40,15.30
2011,07,23,09,41,15.30
2011,07,23,09,42,15.30
2011,07,23,09,43,15.30
2011,07,23,09,44,15.40
2011,07,23,09,45,15.40
2011,07,23,09,46,15.50
2011,07,23,09,47,15.60
2011,07,23,09,48,15.70
2011,07,23,09,49,15.80
2011,07,23,09,50,15.80
2011,07,23,09,51,15.90
2011,07,23,09,52,16.00
2011,07,23,09,53,16.10
2011,07,23,09,54,16.20
2011,07,23,09,55,16.20
2011,07,23,09,56,16.20
2011,07,23,09,57,16.20
2011,07,23,09,58,16.30
2011,07,23,09,59,16.30
2011,07,23,10,00,16.40
2011,07,23,10,01,16.40
2011,07,23,10,02,16.50
2011,07,23,10,03,16.50
2011,07,23,10,04,16.60
2011,07,23,10,05,16.60
2011,07,23,10,06,16.70
2011,07,23,10,07,16.80
2011,07,23,10,08,16.90
2011,07,23,10,09,16.90
2011,07,23,10,10,17.00
2011,07,23,10,11,17.20
2011,07,23,10,12,17.30
2011,07,23,10,13,17.40
2011,07,23,10,14,17.40
2011,07,23,10,15,17.40
2011,07,23,10,16,17.30
2011,07,23,10,17,17.20
2011,07,23,10,18,17.10
2011,07,23,10,19,17.10
2011,07,23,10,20,17.10
2011,07,23,10,21,17.20
2011,07,23,10,22,17.30
2011,07,23,10,23,17.30
2011,07,23,10,24,17.40
2011,07,23,10,25,17.50
2011,07,23,10,26,17.50
2011,07,23,10,27,17.50
2011,07,23,10,28,17.40
2011,07,23,10,29,17.50
2011,07,23,10,30,17.60
2011,07,23,10,31,17.60
2011,07,23,10,32,17.70
2011,07,23,10,33,17.70
2011,07,23,10,34,17.80
2011,07,23,10,35,17.80
2011,07,23,10,36,17.80
2011,07,23,10,37,17.80
2011,07,23,10,38,17.90
2011,07,23,10,39,17.90
2011,07,23,10,40,17.90
2011,07,23,10,41,17.90
2011,07,23,10,42,17.90
2011,07,23,10,43,18.00
2011,07,23,10,44,18.10
2011,07,23,10,45,18.10
2011,07,23,10,46,18.20
2011,07,23,10,47,18.20
2011,07,23,10,48,18.30
2011,07,23,10,49,18.40
2011,07,23,10,50,18.50
2011,07,23,10,51,18.50
2011,07,23,10,52,18.60
2011,07,23,10,53,18.60
2011,07,23,10,54,18.50
2011,07,23,10,55,18.40
2011,07,23,10,56,18.30
2011,07,23,10,57,18.30
2011,07,23,10,58,18.30
2011,07,23,10,59,18.30
2011,07,23,11,00,18.30
2011,07,23,11,01,18.40
2011,07,23,11,02,18.50
2011,07,23,11,03,18.60
2011,07,23,11,04,18.60
2011,07,23,11,05,18.50
2011,07,23,11,06,18.40
2011,07,23,11,07,18.40
2011,07,23,11,08,18.40
2011,07,23,11,09,18.40
2011,07,23,11,10,18.50
2011,07,23,11,11,18.50
2011,07,23,11,12,18.50
2011,07,23,11,13,18.60
2011,07,23,11,14,18.70
2011,07,23,11,15,18.70
2011,07,23,11,16,18.70
2011,07,23,11,17,18.80
2011,07,23,11,18,18.80
2011,07,23,11,19,18.80
2011,07,23,11,20,18.80
2011,07,23,11,21,18.80
2011,07,23,11,22,18.80
2011,07,23,11,23,18.80
2011,07,23,11,24,18.80
2011,07,23,11,25,18.70
2011,07,23,11,26,18.70
2011,07,23,11,27,18.70
2011,07,23,11,28,18.80
2011,07,23,11,29,18.80
2011,07,23,11,30,18.90
2011,07,23,11,31,19.00
2011,07,23,11,32,19.10
2011,07,23,11,33,19.20
2011,07,23,11,34,19.20
2011,07,23,11,35,19.20
2011,07,23,11,36,19.20
2011,07,23,11,37,19.20
2011,07,23,11,38,19.20
2011,07,23,11,39,19.20
2011,07,23,11,40,19.30
2011,07,23,11,41,19.30
2011,07,23,11,42,19.30
2011,07,23,11,43,19.40
2011,07,23,11,44,19.40
2011,07,23,11,45,19.50
2011,07,23,11,46,19.60
2011,07,23,11,47,19.70
2011,07,23,11,48,19.80
2011,07,23,11,49,19.80
2011,07,23,11,50,19.90
2011,07,23,11,51,19.80
2011,07,23,11,52,19.80
2011,07,23,11,53,19.80
2011,07,23,11,54,19.80
2011,07,23,11,55,19.80
2011,07,23,11,56,19.90
2011,07,23,11,57,20.00
2011,07,23,11,58,20.00
2011,07,23,11,59,19.90
2011,07,23,12,00,19.80
2011,07,23,12,01,19.80
2011,07,23,12,02,19.80
2011,07,23,12,03,19.80
2011,07,23,12,04,19.80
2011,07,23,12,05,19.70
2011,07,23,12,06,19.70
2011,07,23,12,07,19.70
2011,07,23,12,08,19.70
2011,07,23,12,09,19.80
2011,07,23,12,10,19.80
2011,07,23,12,11,19.90
2011,07,23,12,12,19.90
2011,07,23,12,13,20.00
2011,07,23,12,14,20.10
2011,07,23,12,15,20.20
2011,07,23,12,16,20.30
2011,07,23,12,17,20.30
2011,07,23,12,18,20.40
2011,07,23,12,19,20.40
2011,07,23,12,20,20.30
2011,07,23,12,21,20.30
2011,07,23,12,22,20.30
2011,07,23,12,23,20.50
2011,07,23,12,24,20.60
2011,07,23,12,25,20.70
2011,07,23,12,26,20.70
2011,07,23,12,27,20.60
2011,07,23,12,28,20.60
2011,07,23,12,29,20.60
2011,07,23,12,30,20.60
2011,07,23,12,31,20.60
2011,07,23,12,32,20.60
2011,07,23,12,33,20.70
2011,07,23,12,34,20.70
2011,07,23,12,35,20.80
2011,07,23,12,36,20.80
2011,07,23,12,37,20.80
2011,07,23,12,38,20.80
2011,07,23,12,39,20.80
2011,07,23,12,40,20.70
2011,07,23,12,41,20.70
2011,07,23,12,42,20.70
2011,07,23,12,43,20.70
2011,07,23,12,44,20.80
2011,07,23,12,45,20.80
2011,07,23,12,46,20.90
2011,07,23,12,47,21.00
2011,07,23,12,48,21.00
2011,07,23,12,49,20.90
2011,07,23,12,50,20.80
2011,07,23,12,51,20.80
2011,07,23,12,52,20.80
2011,07,23,12,53,20.90
2011,07,23,12,54,20.90
2011,07,23,12,55,21.10
2011,07,23,12,56,21.10
2011,07,23,12,57,21.20
2011,07,23,12,58,21.20
2011,07,23,12,59,21.30
2011,07,23,13,00,21.40
2011,07,23,13,01,21.50
2011,07,23,13,02,21.60
2011,07,23,13,03,21.60
2011,07,23,13,04,21.70
2011,07,23,13,05,21.80
2011,07,23,13,06,21.90
2011,07,23,13,07,22.00
2011,07,23,13,08,22.10
2011,07,23,13,09,22.30
2011,07,23,13,10,22.30
2011,07,23,13,11,22.40
2011,07,23,13,12,22.40
2011,07,23,13,13,22.40
2011,07,23,13,14,22.40
2011,07,23,13,15,22.30
2011,07,23,13,16,22.10
2011,07,23,13,17,22.00
2011,07,23,13,18,21.90
2011,07,23,13,19,21.80
2011,07,23,13,20,21.80
2011,07,23,13,21,21.70
2011,07,23,13,22,21.60
2011,07,23,13,23,21.60
2011,07,23,13,24,21.60
2011,07,23,13,25,21.70
2011,07,23,13,26,21.70
2011,07,23,13,27,21.70
2011,07,23,13,28,21.70
2011,07,23,13,29,21.70
2011,07,23,13,30,21.70
2011,07,23,13,31,21.70
2011,07,23,13,32,21.70
2011,07,23,13,33,21.70
2011,07,23,13,34,21.80
2011,07,23,13,35,21.80
2011,07,23,13,36,21.80
2011,07,23,13,37,21.80
2011,07,23,13,38,21.80
2011,07,23,13,39,21.90
2011,07,23,13,40,22.00
2011,07,23,13,41,22.10
2011,07,23,13,42,22.10
2011,07,23,13,43,22.10
2011,07,23,13,44,22.10
2011,07,23,13,45,22.10
2011,07,23,13,46,22.20
2011,07,23,13,47,22.20
2011,07,23,13,48,22.20
2011,07,23,13,49,22.20
2011,07,23,13,50,22.20
2011,07,23,13,51,22.20
2011,07,23,13,52,22.20
2011,07,23,13,53,22.10
2011,07,23,13,54,22.10
2011,07,23,13,55,22.10
2011,07,23,13,56,22.20
2011,07,23,13,57,22.20
2011,07,23,13,58,22.20
2011,07,23,13,59,22.30
2011,07,23,14,00,22.30
2011,07,23,14,01,22.30
2011,07,23,14,02,22.40
2011,07,23,14,03,22.50
2011,07,23,14,04,22.60
2011,07,23,14,05,22.60
2011,07,23,14,06,22.70
2011,07,23,14,07,22.70
2011,07,23,14,08,22.80
2011,07,23,14,09,22.80
2011,07,23,14,10,22.80
2011,07,23,14,11,22.80
2011,07,23,14,12,22.80
2011,07,23,14,13,22.80
2011,07,23,14,14,22.80
2011,07,23,14,15,22.80
2011,07,23,14,16,22.80
2011,07,23,14,17,22.80
2011,07,23,14,18,22.80
2011,07,23,14,19,22.80
2011,07,23,14,20,22.80
2011,07,23,14,21,22.80
2011,07,23,14,22,22.80
2011,07,23,14,23,22.80
2011,07,23,14,24,22.70
2011,07,23,14,25,22.70
2011,07,23,14,26,22.70
2011,07,23,14,27,22.60
2011,07,23,14,28,22.50
2011,07,23,14,29,22.40
2011,07,23,14,30,22.30
2011,07,23,14,31,22.30
2011,07,23,14,32,22.20
2011,07,23,14,33,22.20
2011,07,23,14,34,22.20
2011,07,23,14,35,22.20
2011,07,23,14,36,22.20
2011,07,23,14,37,22.20
2011,07,23,14,38,22.30
2011,07,23,14,39,22.30
2011,07,23,14,40,22.30
2011,07,23,14,41,22.30
2011,07,23,14,42,22.30
2011,07,23,14,43,22.30
2011,07,23,14,44,22.30
2011,07,23,14,45,22.40
2011,07,23,14,46,22.40
2011,07,23,14,47,22.40
2011,07,23,14,48,22.40
2011,07,23,14,49,22.40
2011,07,23,14,50,22.50
2011,07,23,14,51,22.50
2011,07,23,14,52,22.50
2011,07,23,14,53,22.60
2011,07,23,14,54,22.60
2011,07,23,14,55,22.70
2011,07,23,14,56,22.80
2011,07,23,14,57,22.80
2011,07,23,14,58,22.80
2011,07,23,14,59,22.90
2011,07,23,15,00,22.80
2011,07,23,15,01,22.80
2011,07,23,15,02,22.70
2011,07,23,15,03,22.60
2011,07,23,15,04,22.50
2011,07,23,15,05,22.50
2011,07,23,15,06,22.40
2011,07,23,15,07,22.40
2011,07,23,15,08,22.40
2011,07,23,15,09,22.40
2011,07,23,15,10,22.40
2011,07,23,15,11,22.40
2011,07,23,15,12,22.40
2011,07,23,15,13,22.40
2011,07,23,15,14,22.30
2011,07,23,15,15,22.20
2011,07,23,15,16,22.20
2011,07,23,15,17,22.20
2011,07,23,15,18,22.20
2011,07,23,15,19,22.20
2011,07,23,15,20,22.30
2011,07,23,15,21,22.30
2011,07,23,15,22,22.30
2011,07,23,15,23,22.30
2011,07,23,15,24,22.30
2011,07,23,15,25,22.30
2011,07,23,15,26,22.40
2011,07,23,15,27,22.50
2011,07,23,15,28,22.50
2011,07,23,15,29,22.60
2011,07,23,15,30,22.60
2011,07,23,15,31,22.60
2011,07,23,15,32,22.60
2011,07,23,15,33,22.50
2011,07,23,15,34,22.40
2011,07,23,15,35,22.40
2011,07,23,15,36,22.30
2011,07,23,15,37,22.30
2011,07,23,15,38,22.30
2011,07,23,15,39,22.20
2011,07,23,15,40,22.10
2011,07,23,15,41,22.10
2011,07,23,15,42,22.10
2011,07,23,15,43,22.10
2011,07,23,15,44,22.10
2011,07,23,15,45,22.10
2011,07,23,15,46,22.20
2011,07,23,15,47,22.20
2011,07,23,15,48,22.30
2011,07,23,15,49,22.30
2011,07,23,15,50,22.30
2011,07,23,15,51,22.30
2011,07,23,15,52,22.30
2011,07,23,15,53,22.30
2011,07,23,15,54,22.30
2011,07,23,15,55,22.30
2011,07,23,15,56,22.30
2011,07,23,15,57,22.20
2011,07,23,15,58,22.20
2011,07,23,15,59,22.20
2011,07,23,16,00,22.20
2011,07,23,16,01,22.20
2011,07,23,16,02,22.10
2011,07,23,16,03,22.10
2011,07,23,16,04,22.10
2011,07,23,16,05,22.10
2011,07,23,16,06,22.10
2011,07,23,16,07,22.00
2011,07,23,16,08,22.00
2011,07,23,16,09,22.00
2011,07,23,16,10,22.10
2011,07,23,16,11,22.10
2011,07,23,16,12,22.10
2011,07,23,16,13,22.20
2011,07,23,16,14,22.20
2011,07,23,16,15,22.20
2011,07,23,16,16,22.20
2011,07,23,16,17,22.20
2011,07,23,16,18,22.20
2011,07,23,16,19,22.30
2011,07,23,16,20,22.20
2011,07,23,16,21,22.20
2011,07,23,16,22,22.30
2011,07,23,16,23,22.30
2011,07,23,16,24,22.30
2011,07,23,16,25,22.40
2011,07,23,16,26,22.40
2011,07,23,16,27,22.50
2011,07,23,16,28,22.60
2011,07,23,16,29,22.60
2011,07,23,16,30,22.50
2011,07,23,16,31,22.50
2011,07,23,16,32,22.60
2011,07,23,16,33,22.70
2011,07,23,16,34,22.70
2011,07,23,16,35,22.70
2011,07,23,16,36,22.80
2011,07,23,16,37,22.80
2011,07,23,16,38,22.80
2011,07,23,16,39,22.80
2011,07,23,16,40,22.80
2011,07,23,16,41,22.90
2011,07,23,16,42,23.00
2011,07,23,16,43,23.00
2011,07,23,16,44,23.00
2011,07,23,16,45,23.00
2011,07,23,16,46,22.90
2011,07,23,16,47,22.80
2011,07,23,16,48,22.80
2011,07,23,16,49,22.80
2011,07,23,16,50,22.90
2011,07,23,16,51,23.00
2011,07,23,16,52,23.00
2011,07,23,16,53,23.10
2011,07,23,16,54,23.20
2011,07,23,16,55,23.20
2011,07,23,16,56,23.30
2011,07,23,16,57,23.30
2011,07,23,16,58,23.40
2011,07,23,16,59,23.30
2011,07,23,17,00,23.30
2011,07,23,17,01,23.30
2011,07,23,17,02,23.30
2011,07,23,17,03,23.20
2011,07,23,17,04,23.20
2011,07,23,17,05,23.20
2011,07,23,17,06,23.10
2011,07,23,17,07,23.10
2011,07,23,17,08,23.00
2011,07,23,17,09,23.00
2011,07,23,17,10,23.00
2011,07,23,17,11,22.90
2011,07,23,17,12,22.90
2011,07,23,17,13,22.90
2011,07,23,17,14,22.90
2011,07,23,17,15,22.90
2011,07,23,17,16,23.00
2011,07,23,17,17,23.00
2011,07,23,17,18,23.10
2011,07,23,17,19,23.10
2011,07,23,17,20,23.10
2011,07,23,17,21,23.00
2011,07,23,17,22,22.90
2011,07,23,17,23,22.90
2011,07,23,17,24,22.90
2011,07,23,17,25,22.80
2011,07,23,17,26,22.80
2011,07,23,17,27,22.70
2011,07,23,17,28,22.70
2011,07,23,17,29,22.70
2011,07,23,17,30,22.70
2011,07,23,17,31,22.70
2011,07,23,17,32,22.70
2011,07,23,17,33,22.60
2011,07,23,17,34,22.60
2011,07,23,17,35,22.60
2011,07,23,17,36,22.50
2011,07,23,17,37,22.50